Regional Weather Roundup
Issued by NWS Austin/San Antonio, TX

Home | Current Version | Previous Version | Text Only | Print | Product List | Glossary On
Versions: 1 2 3 4 5 6 7 8 9 10 11 12 13 14 15 16 17 18 19 20 21 22 23 24 25 26 27 28 29 30 31 32 33 34 35 36 37 38 39 40 41 42 43 44 45 46 47 48 49 50
760
ASUS44 KEWX 212202
RWREWX
SOUTH TEXAS REGIONAL WEATHER ROUNDUP
NATIONAL WEATHER SERVICE AUSTIN/SAN ANTONIO TX
500 PM CDT MON OCT 21 2019

NOTE: "FAIR" INDICATED FEW OR NO CLOUDS BELOW 12,000 FEET WITH NO
SIGNIFICANT WEATHER AND/OR OBSTRUCTIONS TO VISIBILITY.

* - THESE STATIONS ARE NOT NWS OR FAA STATIONS...AND ARE NOT SUBJECT
    TO NWS AND FAA QUALITY CONTROL.

TXZ171-172-183>190-212300-
TEXAS HILL COUNTRY AND EDWARDS PLATEAU

CITY           SKY/WX    TMP DP  RH WIND       PRES   REMARKS
JUNCTION       SUNNY     77  30  17 NW8       29.93S
*LLANO         SUNNY     79  28  15 N6        29.94S
BURNET         SUNNY     74  27  17 VRB3      29.93S
*HORSESHOE BAY SUNNY     77  30  18 CALM      29.91S
*KERRVILLE     SUNNY     79  24  13 CALM      29.92S
*FREDERICKSBRG SUNNY     75  28  17 N6        29.93S
*ROCKSPRINGS   SUNNY     75  28  17 VRB7      29.99S
*BOERNE        SUNNY     75  34  22 N5        29.92S
*CASTROVILLE   SUNNY     83  31  15 NE9       29.89F
HONDO          SUNNY     85  29  13 N7        29.88S
*UVALDE        SUNNY     84  32  15 CALM      29.88S
DEL RIO          N/A     86  20   9 VRB3      29.86F
LAUGHLIN AFB   NOT AVBL
SPOFFORD       NOT AVBL
*EAGLE PASS    SUNNY     88  23   9 CALM      29.87F
CARRIZO SPRGS  SUNNY     86  34  15 NE7       29.85F
*FAITH RANCH   SUNNY     88  36  15 NE8       29.86S
$$

TXZ173-191>194-202-209-217>225-228-212300-
CENTRAL AND SOUTH CENTRAL TEXAS

CITY           SKY/WX    TMP DP  RH WIND       PRES   REMARKS
GEORGETOWN     SUNNY     77  34  21 N7        29.91F
AUSTIN/BERGSTM MOSUNNY   79  36  21 NE7       29.88F
AUSTIN/MABRY   SUNNY     81  30  15 VRB6      29.90S
*AUSTIN/EXEC   SUNNY     77  34  20 NE7       29.90S
*LAGO VISTA    SUNNY     75  35  23 NE6       29.92S
SAN MARCOS     SUNNY     79  35  20 NE10      29.89F
NEW BRAUNFELS  SUNNY     82  33  17 NE12      29.87F
RANDOLPH AFB   SUNNY     81  35  19 NW7       29.88S
SEGUIN         SUNNY     79  34  19 NE7       29.91F
KELLY FIELD    SUNNY     82  37  20 NE8       29.86F
SAN ANTONIO    MOSUNNY   81  34  18 VRB7      29.89S
STINSON FIELD  SUNNY     81  36  19 N9        29.86S
PLEASANTON     SUNNY     82  38  20 E3        29.87F
*LA GRANGE     SUNNY     81  40  23 NE7       29.85F
*GIDDINGS      SUNNY     81  38  21 NE7       29.88F
*GONZALES      SUNNY     81  41  23 NE5       29.86F
$$

TXZ163>164-176>182-195>201-210>213-226-227-235-212300-
SOUTHEAST TEXAS

CITY           SKY/WX    TMP DP  RH WIND       PRES   REMARKS
COLLEGE STN    SUNNY     80  39  23 NW9       29.86F
*BRYAN         SUNNY     79  42  27 N9        29.89F
*CALDWELL      SUNNY     78  36  22 N7        29.88F
*CROCKETT      SUNNY     77  41  27 NW8       29.90S
*BRENHAM       SUNNY     80  39  23 N8        29.86F
HUNTSVILLE     SUNNY     79  42  26 N6        29.86F
CONROE         SUNNY     78  53  41 N8        29.85S
HOUSTON BUSH   MOSUNNY   80  58  46 N10G25    29.82S
HOUSTON HOBBY  FAIR      80  58  46 N10       29.80F
*HOUSTON SW AP FAIR      78  58  50 N8        29.82F
PEARLAND       FAIR      80  60  50 NW7       29.82F
HOUSTON HOOKS  FAIR      78  51  38 N10       29.83S
ELLINGTON FLD  NOT AVBL
SUGAR LAND     FAIR      80  60  50 N9        29.81F
*HOUSTON EXEC  FAIR      81  50  34 N12       29.84F
*CLEVELAND MUN FAIR      76  62  61 N10       29.84S
*WHARTON       SUNNY     80  48  33 N10       29.83F
*COLUMBUS      FAIR      80  32  17 N9G16     29.85F
*EAGLE LAKE    SUNNY     82  46  27 N9        29.84S
$$

TXZ214>216-236>238-212300-
THE UPPER TEXAS COAST

CITY           SKY/WX    TMP DP  RH WIND       PRES   REMARKS
*ORANGE        FAIR      73  67  80 N6        29.82S
PORT ARTHUR    FAIR      75  63  66 N10       29.80S
GALVESTON      FAIR      76  67  73 N12       29.81S
ANGLETON       FAIR      78  62  57 N13       29.81S
*BAY CITY      SUNNY     81  61  50 N10       29.81R
PALACIOS       SUNNY     81  58  45 N13       29.81F
$$

TXZ229>234-239>247-212300-
TEXAS COASTAL BEND AND RIO GRANDE PLAINS

CITY           SKY/WX    TMP DP  RH WIND       PRES   REMARKS
VICTORIA       SUNNY     83  53  35 N8        29.83F
*BEEVILLE      SUNNY     88  40  18 N9        29.83S
ROCKPORT       SUNNY     85  60  42 NE8       29.81S
*PORT ARANSAS  SUNNY     80  60  51 N16       29.83R
*PORT LAVACA   SUNNY     84  58  41 N10G17    29.83S
*INGLESIDE     SUNNY     83  63  49 NE12      29.81S
CORPUS CHRISTI MOSUNNY   88  58  36 NE10      29.81S
CORPUS NAS     MOSUNNY   80  67  64 NE14      29.81S
*ROBSTOWN      SUNNY     87  51  28 N12G21    29.82R
ALICE          SUNNY     90  52  27 N14       29.81S
KINGSVILLE NAS PTSUNNY   90  59  35 N10G17    29.81R
COTULLA        SUNNY     88  32  13 NE9       29.86S
LAREDO         SUNNY     89  50  26 N10       29.83S
$$

TXZ248>255-212300-
DEEP SOUTH TEXAS

CITY           SKY/WX    TMP DP  RH WIND       PRES   REMARKS
BROWNSVILLE    CLOUDY    82  73  74 N10G24    29.77R
PORT ISABEL    PTSUNNY   81  72  74 N18G26    29.78R
HARLINGEN      SUNNY     80  70  71 NE17G24   29.78R
*HEBBRONVILLE  MOSUNNY   88  56  34 CALM      29.84R
MCALLEN        PTSUNNY   87  72  60 NE13      29.79R HX  93
*WESLACO       SUNNY     82  69  65 NE12G17   29.79R
FALFURRIAS     SUNNY     90  59  35 NE9       29.80S
EDINBURG       FAIR      83  65  55 NE15      29.80R
*ZAPATA        NOT AVBL
$$

TXZ213>215-236>238-242>244-246-247-251-254-255-212300-
CMAN STATIONS

STATION/POSITION TIME  TEMP    WIND        PRES    WAVE
                       AIR SEA DIR/SP/G            HT/PER
                 (UTC) (F)     (DEG/KT/KT) (MB)    (FT/S)
SABINE PASS      2130   71 78   20/ 12/ 14 1010.4
SEA RIM ST PARK  2100   72     350/  9/ 12 1009.1
NORTH JETTY/GLS  2124   72 77  360/ 14/ 16 1007.5
EAGLE POINT      2130   74 77  340/  6/ 13 1008.2
MORGANS POINT    2130   75 78  350/ 10/ 13 1008.8
PORT O`CONNOR    2130   77 81   10/ 15/ 18 1009.1
PORT ARANSAS     2100   77 79   30/ 15/ 16 1009.4
MALAQUITE BEACH  2124   79 81   10/ 14/ 15 1009.0
BAFFIN BAY       2124   78 82   10/ 11/ 16 1009.4
PORT ISABEL      2124   80 81   10/ 14/ 19 1008.1
$$




USA.gov is the U.S. government's official web portal to all federal, state and local government web resources and services.